STARLINK-32336, 61004

Orbit data source: Space-Track

STARLINK-32336, 61004 is a payload satellite owned by SpaceX/Seattle (US) in LEO that was launched on Thu, 05 Sep 2024 UTC via an FALCON 9 launch vehicle from the Air Force Eastern Test Range (AFETR). Payload-class satellites include a variety of spacecraft equipped with specific instruments for various scientific and technological missions. These include communications satellites like Starlink; space stations such as the ISS; scientific satellites like the Hubble; Earth observation satellites from companies like Planet Labs, Umbra, and HawkEye 360; GPS; miniature CubeSats for education and research; and military/defense satellites.

Loading next visibility...
Identifier
61004, 2024-158Q
Orbit
LEO
Country
Flag of USUS
Related business
Manufacturer
SpaceX/Seattle
Mission
Operational Commercial Communications
Bus & Motor
STARLINK V2M, Unknown motor
Mass
730 kg wet, ~700 kg dry
Launch date (UTC)
2024-09-05 (1 year ago)
Launch vehicle
FALCON 9
Launch site
Air Force Eastern Test Range (AFETR)
Object type
Payload
Rocket body
Debris
Shape & HBR
Box + 2 Pan, 17.7 m
Radar Cross Section
33.884 m², Large (>1 m²)

Expand to show TLE details & history
Last TLE update: 8 hours ago

TLE from 8 hours ago
0 STARLINK-32336
1 61004U 24158Q   25353.23774031  .00011720  00000-0  40816-3 0  9999
2 61004  53.1612  79.2289 0001034 116.7739 243.3367 15.30123420 73335
Epoch: 2025-12-19T05:42Z
TLE epoch observation values (Epoch: 2025-12-19T05:42:20.762Z)
Latitude
-0.00009°
Longitude
-94.43944°
Altitude
476.662 km
Speed
7.628 km/s
True Right ascension
05h 16m 54s
True Declination
0° 00' 00"
Sunlit
Object was in full shadow at epoch
Visualization orbit readout
Latitude
Unknown
Longitude
Unknown
Altitude
Unknown
Speed
Unknown
Apparent Right ascension
Unknown
Apparent Declination
Unknown
Sunlit
N/A
Visualization observer readout
Local Sidereal Time
12:27:36
Azimuth
Unknown
Elevation
Unknown
Doppler factor
Unknown
Orbital elements
Apogee altitude
476.409 km
Perigee altitude
474.991 km
Semi-major axis
6,853.837 km
Eccentricity
0.0001
Inclination
53.1612°
RAAN
79.2289°
Arg. of periapsis
116.7739°
True anomaly
243.32611°
Mean anomaly
243.3367°
Eccentric anomaly
243.33141°
Mean motion
3.8251 °/min
Orbital period
94.12 mins
BSTAR
0.00040816
Loading maneuver chart data...
Computing Atmospheric mass density...
Loading historical data...
Loading historical data...
Loading historical data...
Loading historical data...
Loading historical data...
Loading historical data...
Loading historical data...

Documentation

Showing up to 5 results
|